OpenBCM V1.13 (Linux)

Packet Radio Mailbox

DB0FHN

[JN59NK Nuernberg]

 Login: GUEST





  
I0OJJ  > KEPS     30.01.26 02:33l 317 Lines 15171 Bytes #999 (0) @ AMSAT
BID : ORB26030.1
Read: OE5RCO DJ6UX GUEST
Subj: 2Line Orbital Elements 26030.AMSAT
Path: DB0FHN<DB0RKB<DK0WUE<PD0LPM<PI8ZTM<CX2SA<EA2RCF<I0OJJ
Sent: 260130/0021z @:I0OJJ.ITA.EU [Rome] obcm1.13-38-g65b7
From: I0OJJ @ I0OJJ.ITA.EU (Gustavo)
To:   KEPS @ AMSAT
X-Info: This message was generated automatically


QST de W1STR

AMSAT Orbital Elements for Amateur Satellites in TLE Format
From Orbital Analysis Office
New England Sci-Tech STEM Education Center
Natick MA January 30, 2026
To all radio amateurs


These element sets describe the orbits of various satellites 
in use by the amateur radio community. For details see:
www.amsat.org/keplerian-elements-formats/

A daily update of element sets is available at:
www.amsat.org/tle/daily-bulletin.txt
or without bulletin text:
www.amsat.org/tle/dailytle.txt


AO-07
1 07530U 74089B   26029.54632318 -.00000015  00000-0  19509-3 0  9998
2 07530 101.9969  41.3171 0012323  36.8905  79.5033 12.53695468343142
UO-11
1 14781U 84021B   26029.46609859  .00002726  00000-0  28588-3 0  9993
2 14781  97.7873 356.7776 0006088 287.5328  72.5224 14.90352028236469
AO-27
1 22825U 93061C   26028.70957933  .00000209  00000-0  96676-4 0  9998
2 22825  98.7070  96.0721 0009052 144.2339 215.9451 14.30898481687058
FO-29
1 24278U 96046B   26029.46227034  .00000013  00000-0  46331-4 0  9990
2 24278  98.5430 257.1788 0350906  96.3376 267.7844 13.53266040454404
GO-32
1 25397U 98043D   26029.47346277  .00000171  00000-0  94233-4 0  9993
2 25397  98.9973  18.8006 0000362 219.1351 140.9801 14.24394183431582
ISS
1 25544U 98067A   26029.14423895  .00012119  00000-0  23330-3 0  9993
2 25544  51.6318 267.8418 0011079  40.9721 319.2097 15.48261724550206
NO-44
1 26931U 01043C   26028.95448457  .00000275  00000-0  13350-3 0  9992
2 26931  67.0488 244.3761 0007114 266.8331  93.1957 14.31888389270517
SO-50
1 27607U 02058C   26028.89048525  .00002651  00000-0  33127-3 0  9999
2 27607  64.5516 199.8422 0074046 287.8634  71.4405 14.82614487243808
CO-55
1 27844U 03031E   26029.50353395  .00000574  00000-0  26786-3 0  9992
2 27844  98.6771  39.7934 0008811 223.8790 136.1690 14.24230942171937
CO-57
1 27848U 03031J   26029.00134546  .00000492  00000-0  23550-3 0  9991
2 27848  98.6800  39.1219 0008504 245.4588 114.5704 14.23530746171578
RS-22
1 27939U 03042A   26029.53673983  .00003154  00000-0  49737-3 0  9998
2 27939  98.3393 210.0192 0011232 354.4208  98.3889 14.73136393195131
CO-58
1 28895U 05043F   26029.36407318  .00003145  00000-0  50722-3 0  9997
2 28895  98.2759 182.2666 0013243 287.2770  72.6987 14.72133840 81327
CO-65
1 32785U 08021C   26029.49982421  .00009693  00000-0  63706-3 0  9996
2 32785  97.8131   8.3065 0010458 132.6530 227.5580 15.07772908964280
CO-66
1 32791U 08021J   26029.50276219  .00029119  00000-0  10879-2 0  9993
2 32791  97.7474  21.3720 0005664  83.8469 276.3414 15.27308505966088
RS-30
1 32953U 08025A   26029.51480698  .00000014  00000-0  29800-4 0  9995
2 32953  82.5009  81.7068 0018342 252.4642 107.4434 12.43174113802461
SRMSAT
1 37841U 11058D   26028.74117308  .00000538  00000-0  14831-3 0  9993
2 37841  19.9702 183.4897 0011778 109.4836 278.5004 14.11531752738091
ZACUBE-1
1 39417U 13066B   26028.84067127  .00011034  00000-0  88069-3 0  9996
2 39417  97.8129 350.4843 0041752 357.0996   2.9978 14.99768589659839
Delfi-N3xt
1 39428U 13066N   26029.34773703  .00015970  00000-0  14570-2 0  9996
2 39428  97.8350 310.0013 0076496 309.3085  50.1368 14.92930735653895
GOMX-1
1 39430U 13066Q   26029.52277564  .00003324  00000-0  50691-3 0  9998
2 39430  97.6588 238.6673 0130005 162.2091 198.3731 14.68909025649554
LO-74
1 39440U 13066AA  26029.34889404  .00006927  00000-0  65690-3 0  9998
2 39440  97.8758 337.9919 0060431 126.3950 234.2864 14.92489039656271
AO-73
1 39444U 13066AE  26029.47900174  .00015843  00000-0  10428-2 0  9999
2 39444  97.8108 358.3954 0036668 317.8215  42.0191 15.07074481658757
DTUSAT-2
1 40030U 14033W   26029.51084603  .00015285  00000-0  87447-3 0  9998
2 40030  98.0793  18.7133 0008166   1.2304 358.8944 15.12735027631700
EO-80
1 40032U 14033Y   26029.51816343  .00015259  00000-0  87036-3 0  9999
2 40032  98.0678  18.0500 0005984 294.5588  65.5017 15.12858469631687
LILACSAT-2
1 40908U 15049K   26029.51714991  .00023472  00000-0  47324-3 0  9997
2 40908  97.4867  61.4160 0008870  46.8236 313.3753 15.46512472574282
Horyu-4
1 41340U 16012D   26028.59310490  .00084243  00000-0  11400-2 0  9990
2 41340  30.9942 347.0159 0003547 332.0365  28.0095 15.56331595548847
Lapan A3
1 41603U 16040E   26029.51356366  .00005601  00000-0  18324-3 0  9992
2 41603  97.1449  30.3528 0011608 144.2694 215.9327 15.32019521533578
CAS-2T
1 41847U 16066G   26029.22031184  .00002900  00000-0  41605-3 0  9993
2 41847  98.3967 106.4919 0343030 190.9051 168.4570 14.44313781484739
TechnoSat
1 42829U 17042E   26029.44309678  .00006953  00000-0  50706-3 0  9993
2 42829  97.4086 192.6187 0017390 202.5597 157.4867 15.03897095465847
AO-91
1 43017U 17073E   26028.58110339  .00013591  00000-0  62057-3 0  9993
2 43017  97.4920 258.7354 0159560  89.6155 272.3356 15.09964674444306
S-Net D
1 43186U 18014G   26029.25259578  .00009581  00000-0  51477-3 0  9998
2 43186  97.5477 294.9784 0009762 130.7820 229.4260 15.15074491437715
S-Net B
1 43187U 18014H   26029.45958443  .00009676  00000-0  52009-3 0  9995
2 43187  97.5483 295.1660 0010532 126.6843 233.5358 15.15051125437741
S-Net A
1 43188U 18014J   26029.45024218  .00009397  00000-0  50478-3 0  9998
2 43188  97.5491 295.3409 0010395 127.1497 233.0686 15.15083492437743
S-Net C
1 43189U 18014K   26029.46273850  .00009658  00000-0  51901-3 0  9990
2 43189  97.5509 295.4064 0011934 121.7096 238.5301 15.15043531436290
Ten-Koh
1 43677U 18084G   26029.47804872  .00004683  00000-0  36054-3 0  9999
2 43677  98.0710 216.0406 0008776 222.1771 137.8778 15.02157951395333
PO-101
1 43678U 18084H   26029.49433485  .00004091  00000-0  33600-3 0  9997
2 43678  98.1092 219.9173 0007513 251.3391 108.7016 14.99767914395424
QO-100
1 43700U 18090A   26029.28612300  .00000145  00000-0  00000+0 0  9992
2 43700   0.0147  77.7836 0002118 266.8621 272.6566  1.00270796 26283
MinXSS-2
1 43758U 18099A   26028.72776704  .00040219  00000-0  10871-2 0  9997
2 43758  97.4721 101.8086 0009525  52.9547 307.2568 15.37577040392639
AO-95
1 43770U 18099N   26028.71857552  .00018689  00000-0  78891-3 0  9994
2 43770  97.4605  89.6769 0010431 116.0324 244.1988 15.23274810391962
SNUSat 2
1 43782U 18099AA  26028.70064311  .00014036  00000-0  66561-3 0  9992
2 43782  97.4290  84.3178 0012079  67.1486 293.1023 15.19331763391832
SnugLite
1 43784U 18099AC  26028.69345268  .00018870  00000-0  78801-3 0  9995
2 43784  97.4099  84.5348 0004296  72.0144 288.1561 15.23678726392054
ITASat 1
1 43786U 18099AE  26028.67850812  .00011696  00000-0  59378-3 0  9998
2 43786  97.4260  83.0205 0014557 116.4842 243.7886 15.16967250391748
EAGLET 1
1 43790U 18099AJ  26029.37352861  .00007625  00000-0  45064-3 0  9996
2 43790  97.4453  82.6854 0012857 104.0965 256.1695 15.11689960391359
ESEO
1 43792U 18099AL  26029.33078285  .00003974  00000-0  29334-3 0  9994
2 43792  97.4178  72.5630 0013257  87.6185 272.6559 15.03734169390938
JO-97
1 43803U 18099AX  26029.43306840  .00026868  00000-0  96067-3 0  9993
2 43803  97.4350  92.1366 0007087  51.7863 308.4014 15.28761158392397
Suomi 100
1 43804U 18099AY  26028.66746212  .00019624  00000-0  79146-3 0  9990
2 43804  97.4415  89.7892 0011720  57.4629 302.7739 15.24789491392137
ISAT
1 43879U 18111D   26029.30918142  .00071303  00000-0  14293-2 0  9995
2 43879  97.5906 316.0670 0009213  86.5458 273.6845 15.46424726389582
UWE-4
1 43880U 18111E   26029.32830445  .00045902  00000-0  12489-2 0  9999
2 43880  97.5857 312.2714 0011851  99.6352 260.6232 15.37316123389380
Sparrow
1 43881U 18111F   26029.34446570  .00085187  00000-0  15417-2 0  9997
2 43881  97.6099 320.1724 0007625 108.1243 252.0838 15.49334108389729
Prox-1
1 44339U 19036A   26029.45449233  .00021330  00000-0  23052-2 0  9998
2 44339  23.9969 318.3837 0006998 231.4995 128.4876 14.86748585352777
Taurus 1
1 44530U 19059C   26029.56759212  .00016781  00000-0  27921-2 0  9992
2 44530  98.6243 186.0984 0008472  27.0155 333.1489 14.70119061338260
TO-108
1 44881U 19093C   26029.50376579  .00002622  00000-0  30380-3 0  9997
2 44881  97.7692 105.0551 0013575 177.0236 183.1063 14.86246673330815
FloripaSat 1
1 44885U 19093G   26028.75542418  .00009314  00000-0  71319-3 0  9996
2 44885  97.7909 122.1695 0011737 174.4925 185.6430 15.02039101331702
RS-44
1 44909U 19096E   26029.47029718  .00000021  00000-0  33030-4 0  9994
2 44909  82.5180  71.8892 0218586 108.6465 253.8505 12.79746711284600
SALSAT
1 46495U 20068K   26029.50580854  .00014154  00000-0  53013-3 0  9998
2 46495  97.8817  24.3998 0012201  72.0975 288.1592 15.27334944294171
CSS (TIANHE-1)
1 48274U 21035A   26029.46753309  .00035517  00000-0  40750-3 0  9992
2 48274  41.4674  86.5141 0009214  30.7035 329.4341 15.61300658271485
CUTE
1 49263U 21088D   26029.48224359  .00050508  00000-0  54903-3 0  9991
2 49263  97.4287 119.5925 0004699  95.1940 264.9854 15.63312547240743
TeikyoSat 4
1 49396U 21102B   26028.55760364  .00003565  00000-0  22948-3 0  9998
2 49396  97.3860  63.3932 0013650  58.2548 302.0009 15.08910746231662
Z-Sat
1 49399U 21102E   26029.54290039  .00008772  00000-0  44533-3 0  9997
2 49399  97.3535  69.0493 0017470  16.9464 343.2350 15.17002978232410
KOSEN 1
1 49402U 21102H   26029.36964965  .00013297  00000-0  54067-3 0  9999
2 49402  97.3413  74.2812 0013775 344.8324  15.2499 15.24575907232858
HO-113
1 50466U 21131B   26029.48680640  .00001063  00000-0  34319-3 0  9997
2 50466  98.5003 122.6605 0004794 143.3343 216.8174 14.41195644215135
SNUGLITE 2
1 52899U 22065F   26029.37423779  .00002194  00000-0  42744-3 0  9999
2 52899  98.1957 174.6540 0008626  99.3346 260.8832 14.64010764190683
